Dewpoint
-0 -0 -1 -1 -1 -1 -1 -0 2 1 0 -1 -1 0 0 1 0 -0 -0 -2 -2 -2 0 0 -1 -1 -0 -3 2 -1 2 3 4 6 7 6 7 3 1 -2 4 6 7 9 6 11 9 -1 -3 0 -1 0 -2 -2
0 -1 -1 -2 -1 -0 0 1 1 1 0 0 -2 1 0 1 0 -0 -0 -1 -1 -1 -0 2 1 2 3 -1 -1 0 -1 0 1 2 6 2 8 8 3 4 2 6 4 5 4 3 2 -2 -2 -2 -0 -2 -1 -1
-1 -0 -1 -0 -0 -0 1 1 2 0 0 -1 -2 1 0 1 0 -1 -1 -2 -1 0 -1 0 -0 -0 1 2 1 0 -1 -3 1 0 4 5 8 5 9 5 2 2 3 5 4 0 1 1 -1 0 -1 -1 -0 0
-1 -0 0 -1 -1 -1 -0 -0 -0 -1 -2 -2 -1 1 0 0 -0 -1 -1 -1 -2 -2 -1 -3 -3 -2 -1 1 2 3 -1 1 1 3 5 6 8 1 3 -0 3 1 2 2 2 1 2 2 2 1 0 -2 -2 -2
-0 -1 -1 -1 -1 -1 -2 -2 -2 -2 0 1 1 0 0 -0 -1 -1 -2 -2 -2 -4 -1 -4 -4 -1 1 2 3 3 3 2 4 5 4 5 2 5 5 4 4 2 2 5 5 1 2 -1 1 0 -0 -1 -1 -2
0 0 0 -0 -0 -1 -1 0 1 1 1 1 0 -0 -0 -1 -1 -2 -1 -3 -2 -2 -0 3 2 -1 -2 2 3 3 2 2 3 2 5 2 5 5 8 6 0 -0 1 1 2 0 1 -0 -1 -1 2 3 2 -0
0 1 1 1 1 1 1 1 1 1 0 -0 -0 -0 -0 -1 -1 -3 -3 -1 -3 -4 -2 2 3 2 1 4 3 3 2 1 3 4 6 5 6 4 7 6 -1 2 2 3 1 1 2 1 2 -0 0 0 1 -0
-1 -0 0 0 0 0 0 -0 -0 -0 -0 -0 -1 -1 -1 -1 -2 -4 -1 -0 -5 -4 0 2 2 2 4 5 5 3 3 3 4 4 5 6 6 5 7 2 1 2 2 3 2 1 2 1 1 1 1 0 -0 -1
-1 -1 -1 -0 -0 -0 -0 -0 -0 -1 -1 -1 -1 -1 -1 -1 -2 -0 0 -2 -5 -1 1 1 2 4 4 4 5 5 5 5 5 6 6 5 6 8 6 2 3 3 2 3 2 2 1 1 1 1 1 -0 -1 -1
-3 -2 -2 -2 -1 -1 -1 -1 -1 -2 -3 -3 -3 -1 -1 -1 -3 -0 1 1 0 0 1 1 1 2 3 2 2 4 4 5 5 5 5 7 6 4 4 4 4 3 3 2 2 1 1 1 1 0 0 -0 -1 -2
-5 -4 -3 -3 -3 -3 -3 -4 -3 -2 -2 -2 -1 -1 -0 1 1 1 0 1 1 1 1 1 0 2 2 2 3 3 4 4 7 6 7 7 6 4 3 3 3 3 3 2 2 1 1 1 0 -0 -1 -1 -1 -2
-6 -5 -3 -2 -2 -2 -2 -3 -3 -2 -2 -1 -2 -0 0 0 1 1 1 1 2 2 2 3 2 2 2 1 2 2 4 2 6 4 7 7 3 2 2 2 2 2 1 1 1 1 0 -0 -0 -1 -2 -2 -2 -2
-4 -5 -5 -5 -4 -4 -3 -4 -3 -0 0 -0 -3 -1 -0 1 1 2 2 2 2 2 2 2 3 2 2 2 1 3 5 5 2 4 5 3 2 1 0 1 0 -0 -0 -1 -1 -1 -1 -1 -1 -2 -2 -2 -3 -3
-5 -5 -2 -2 -3 -4 -3 -2 -1 0 1 0 1 2 3 1 2 3 2 2 2 2 2 2 2 3 1 2 2 5 2 2 6 7 3 2 -1 -1 -1 -2 -2 -3 -2 -2 -2 -2 -2 -3 -3 -3 -3 -4 -3 -4
-1 -1 -1 -1 -1 -1 -1 -0 -1 -1 -1 -1 0 2 2 0 -1 -1 -0 0 0 2 2 2 2 1 2 3 2 3 4 4 2 2 1 -2 -2 -3 -3 -3 -3 -3 -2 -3 -3 -4 -4 -4 -4 -5 -5 -4 -5 -6
-4 -2 -1 -1 -1 -1 -2 -2 -3 -2 -1 -2 -3 -1 -2 0 -1 -2 -2 -1 -0 1 1 1 2 3 3 3 3 2 3 2 0 -1 -2 -3 -4 -4 -4 -4 -4 -4 -4 -5 -5 -5 -5 -5 -5 -6 -6 -6 -7 -7
-6 -2 -1 -3 -4 -3 -3 -3 -3 -2 -2 -2 -3 -5 -4 -3 -4 -4 -4 -3 -1 1 1 2 3 3 2 2 0 -1 -1 -2 -3 -4 -5 -5 -6 -6 -5 -5 -5 -6 -6 -6 -6 -6 -6 -6 -7 -8 -8 -8 -9 -10
-4 -4 -4 -3 -3 -3 -1 -2 -2 -2 -3 -4 -5 -5 -6 -6 -6 -6 -6 -4 -1 -1 -1 -1 -2 -2 -1 -1 -1 -2 -4 -5 -6 -6 -6 -6 -6 -6 -6 -7 -7 -6 -6 -7 -7 -7 -7 -8 -8 -10 -10 -11 -12 -11
-0 -1 -2 -2 -2 -1 -2 -2 -3 -4 -5 -5 -6 -6 -6 -7 -8 -8 -7 -6 -5 -4 -5 -5 -5 -5 -5 -5 -4 -4 -5 -6 -7 -7 -7 -7 -7 -7 -7 -7 -7 -8 -8 -8 -8 -9 -9 -9 -10 -10 -10 -10 -10 -11
-1 -1 -1 -1 -1 -1 -2 -2 -3 -4 -4 -5 -6 -7 -8 -8 -9 -9 -9 -8 -8 -9 -9 -8 -8 -8 -8 -7 -5 -6 -6 -7 -7 -7 -8 -8 -8 -8 -8 -8 -8 -8 -8 -9 -9 -10 -10 -10 -10 -11 -11 -11 -12 -12
-1 -2 -1 -1 -2 -2 -3 -2 -3 -4 -4 -5 -5 -6 -6 -7 -8 -10 -11 -11 -12 -10 -9 -10 -9 -9 -9 -8 -7 -6 -7 -7 -7 -7 -8 -9 -9 -9 -9 -9 -9 -9 -10 -10 -10 -11 -11 -12 -12 -12 -12 -12 -13 -13
-1 -1 -1 -1 -2 -2 -3 -3 -3 -3 -3 -4 -4 -6 -7 -8 -9 -10 -12 -12 -12 -11 -10 -11 -10 -10 -10 -10 -9 -8 -8 -8 -9 -9 -9 -9 -10 -10 -11 -11 -10 -11 -11 -12 -12 -12 -12 -13 -13 -14 -15 -18 -21 -23
-6 -7 -7 -5 -4 -4 -3 -3 -2 -3 -3 -3 -6 -7 -7 -8 -9 -11 -12 -12 -12 -12 -12 -11 -12 -11 -11 -11 -10 -9 -9 -8 -9 -9 -9 -10 -10 -11 -11 -11 -12 -12 -12 -13 -14 -15 -18 -22 -24 -24 -24 -24 -25 -25
-10 -9 -8 -7 -6 -5 -5 -4 -4 -4 -5 -6 -7 -7 -8 -8 -10 -12 -12 -13 -13 -13 -12 -12 -12 -12 -11 -11 -12 -12 -11 -10 -10 -10 -10 -10 -11 -12 -12 -13 -14 -17 -20 -23 -24 -24 -25 -25 -26 -27 -28 -28 -28 -28
-10 -8 -8 -7 -7 -7 -6 -6 -7 -5 -5 -7 -8 -8 -9 -10 -10 -11 -12 -13 -13 -14 -13 -13 -13 -13 -13 -13 -13 -12 -12 -11 -11 -12 -13 -13 -14 -17 -20 -22 -23 -24 -24 -25 -27 -29 -29 -29 -29 -28 -28 -28 -27 -26
-8 -9 -9 -9 -8 -8 -8 -8 -8 -7 -7 -8 -9 -10 -10 -11 -12 -12 -13 -13 -14 -15 -14 -14 -14 -13 -13 -13 -13 -13 -13 -12 -13 -17 -19 -21 -21 -22 -23 -24 -26 -28 -29 -30 -29 -28 -28 -28 -27 -27 -26 -26 -26 -25
-9 -10 -11 -13 -12 -11 -10 -11 -12 -12 -11 -10 -11 -11 -12 -12 -12 -14 -14 -15 -15 -15 -14 -13 -13 -13 -13 -13 -13 -15 -18 -21 -22 -23 -25 -25 -27 -28 -30 -30 -30 -28 -28 -28 -28 -28 -27 -27 -27 -26 -26 -25 -25 -25
-10 -13 -13 -14 -15 -15 -14 -15 -14 -13 -13 -14 -14 -14 -14 -14 -14 -15 -15 -16 -15 -14 -14 -13 -13 -14 -14 -17 -22 -23 -24 -25 -25 -27 -29 -31 -31 -30 -30 -29 -29 -28 -28 -28 -27 -27 -27 -26 -26 -26 -25 -25 -25 -25
-12 -13 -16 -18 -17 -17 -17 -16 -16 -16 -16 -15 -15 -16 -17 -17 -18 -17 -16 -15 -15 -15 -14 -15 -16 -19 -22 -24 -24 -25 -26 -28 -29 -31 -32 -30 -29 -28 -28 -28 -27 -27 -27 -27 -27 -26 -26 -26 -26 -25 -25 -25 -25 -25
-14 -14 -16 -18 -18 -17 -17 -17 -17 -17 -16 -16 -17 -17 -18 -19 -18 -17 -16 -16 -15 -15 -16 -20 -22 -23 -24 -25 -27 -28 -30 -31 -31 -30 -29 -28 -28 -27 -27 -28 -28 -27 -27 -27 -26 -26 -26 -25 -25 -25 -25 -25 -25 -25
-14 -14 -16 -17 -17 -16 -16 -16 -17 -17 -17 -17 -17 -18 -18 -19 -18 -17 -17 -16 -16 -18 -21 -22 -23 -23 -24 -26 -28 -30 -30 -29 -29 -28 -28 -28 -28 -28 -28 -28 -28 -28 -27 -27 -26 -26 -26 -25 -25 -25 -25 -25 -26 -26
-14 -14 -16 -16 -16 -15 -16 -15 -15 -16 -15 -16 -16 -17 -17 -17 -18 -18 -18 -17 -18 -21 -22 -22 -22 -22 -25 -28 -30 -30 -29 -28 -28 -28 -28 -29 -29 -29 -28 -28 -28 -27 -27 -27 -26 -26 -26 -26 -25 -25 -25 -26 -26 -26
-13 -13 -13 -14 -14 -14 -15 -14 -15 -15 -15 -15 -17 -17 -18 -18 -18 -18 -18 -18 -18 -19 -19 -19 -20 -23 -26 -29 -29 -28 -27 -27 -28 -30 -30 -30 -29 -28 -28 -28 -27 -27 -27 -26 -26 -26 -26 -26 -26 -25 -25 -25 -26 -26
Wind_Speed
31 29 30 27 16 22 35 38 51 56 58 54 54 55 62 82 78 51 36 48 38 18 4 10 19 21 34 36 17 19 14 10 9 8 5 5 4 8 7 14 12 6 6 4 5 4 9 12 11 10 13 4 7 9
23 22 20 13 10 13 19 34 56 60 61 54 52 66 67 82 74 51 31 39 34 20 6 6 11 14 12 27 32 25 21 22 10 8 5 4 1 2 10 7 7 9 9 5 8 6 3 25 16 23 7 9 9 12
18 17 15 14 4 4 18 43 58 59 59 54 51 58 75 77 69 46 32 37 30 16 15 12 13 11 15 22 25 18 28 18 20 15 6 3 5 7 6 10 11 8 5 6 5 9 11 12 19 9 9 7 4 7
10 10 15 15 18 23 31 44 50 48 50 51 54 68 75 71 68 40 35 36 28 15 7 16 10 20 19 25 32 23 22 16 14 16 6 3 3 8 6 10 11 12 11 12 12 12 7 11 18 18 16 13 11 11
12 6 7 11 16 24 29 30 35 39 47 52 64 70 68 63 54 36 25 31 29 15 2 17 19 22 15 18 30 27 20 25 13 7 3 4 5 2 2 2 9 9 10 8 7 17 12 12 9 18 19 19 16 17
21 18 15 19 25 21 22 30 40 45 52 63 66 64 57 58 49 37 11 20 21 25 5 2 7 17 32 27 31 34 36 20 16 13 7 8 4 6 4 9 13 20 17 15 6 6 7 9 4 11 13 12 14 18
35 28 32 35 38 44 41 46 53 59 59 60 58 54 57 54 46 25 9 8 32 25 2 3 3 7 23 26 34 31 28 30 17 9 6 7 7 7 2 9 8 12 13 13 15 10 7 9 3 9 10 10 13 15
29 28 33 34 39 44 48 51 52 51 49 49 51 51 49 42 36 13 5 10 32 25 5 4 2 5 13 10 12 22 20 23 15 8 3 3 4 1 4 10 20 11 10 13 16 15 11 11 8 7 7 11 15 15
31 33 34 35 39 42 44 45 46 46 46 48 46 42 37 22 18 5 8 21 29 8 3 3 3 4 2 5 8 7 11 4 4 3 4 7 4 6 6 14 14 18 11 8 9 8 9 8 9 6 12 13 16 18
29 34 37 39 41 43 44 45 47 48 46 45 42 15 8 17 19 24 15 8 9 9 6 3 4 3 6 4 3 3 3 4 3 4 10 5 6 12 5 3 3 7 10 5 5 4 7 7 6 10 12 12 12 17
28 29 34 37 39 41 43 45 46 49 46 24 7 5 19 26 16 4 4 4 5 3 5 8 14 4 6 3 3 3 3 2 4 4 7 5 5 3 6 4 3 2 5 6 6 4 3 6 13 14 14 16 18 21
25 26 29 33 34 36 41 45 47 33 13 10 10 14 12 3 3 4 3 2 3 4 6 3 7 9 7 2 3 3 2 2 5 6 5 5 3 7 6 6 6 5 5 5 4 6 8 11 12 14 15 16 18 19
28 28 28 27 28 31 34 36 27 9 28 18 8 4 4 1 1 2 8 4 4 4 6 3 2 4 2 2 4 3 4 2 2 1 2 2 6 8 9 10 11 11 10 12 14 14 16 17 16 15 18 19 22 25
30 29 27 26 22 23 25 22 2 14 7 3 4 4 1 3 3 3 3 3 1 4 13 13 3 1 2 2 1 3 3 2 2 2 3 2 7 7 9 10 13 15 15 18 19 19 20 20 22 22 23 26 30 32
26 22 27 23 24 16 13 9 10 6 5 7 6 3 1 2 2 3 4 3 4 11 14 5 4 3 3 2 3 3 2 4 5 3 2 5 8 10 13 14 17 18 19 21 21 24 26 27 28 31 29 29 29 28
21 22 20 18 14 5 2 1 7 10 5 5 7 3 8 1 2 6 8 4 4 7 7 6 3 2 3 2 3 5 2 4 2 2 6 9 13 15 18 18 21 22 24 26 26 27 30 33 34 33 29 26 23 20
17 11 12 11 9 2 7 9 8 8 7 4 4 11 6 5 7 6 7 10 4 2 2 2 3 5 2 4 3 4 3 2 6 11 15 16 19 22 24 25 25 26 29 30 31 30 31 30 29 27 26 20 19 18
10 9 10 9 8 5 8 6 5 4 4 6 3 10 15 13 8 11 12 11 3 4 4 4 3 5 4 3 3 3 8 14 17 20 21 22 23 25 26 29 30 31 31 30 29 27 26 23 21 20 19 17 17 14
11 12 13 11 5 3 4 4 4 4 7 4 6 9 6 7 19 16 17 16 18 15 8 6 6 4 4 4 5 10 11 13 20 24 26 25 27 29 29 30 28 28 28 25 24 22 21 20 18 16 14 12 12 10
20 15 12 9 4 4 4 4 5 6 4 4 6 12 7 7 12 17 24 20 17 9 8 5 4 6 6 8 9 13 18 21 23 27 25 24 26 28 26 26 26 26 27 25 25 22 20 19 16 14 12 10 9 8
23 22 17 13 7 8 5 3 5 5 6 5 5 4 4 8 19 13 13 13 14 9 5 10 10 10 10 11 15 17 18 17 19 22 24 24 24 25 26 25 24 24 24 21 20 20 18 16 13 11 9 9 8 6
14 10 9 7 5 4 5 8 5 5 4 7 5 5 6 6 10 17 11 19 8 11 10 9 11 10 15 18 19 21 24 29 30 32 31 27 25 23 22 20 20 22 21 19 17 16 15 13 11 9 8 8 7 7
13 7 6 6 4 5 3 5 3 5 3 3 4 4 5 5 8 9 7 10 8 13 12 11 16 20 21 23 26 27 26 29 30 29 29 28 27 24 23 21 19 19 19 17 15 13 12 10 8 8 8 8 8 8
6 6 6 6 9 3 3 5 5 4 4 4 4 4 4 6 6 7 5 5 11 13 12 12 12 16 23 27 27 26 26 28 30 29 26 25 25 22 21 20 19 18 16 14 12 10 9 8 8 8 8 8 9 9
6 10 7 6 8 5 5 4 5 4 5 5 4 4 4 5 3 4 3 5 12 13 14 15 19 20 22 24 25 25 24 24 26 27 23 22 22 20 19 17 16 15 13 10 10 9 9 8 8 9 9 9 9 9
7 10 7 8 6 5 5 3 5 6 4 4 5 4 3 3 4 4 3 5 6 9 13 13 16 22 24 22 22 22 21 20 20 24 21 18 16 14 13 12 11 11 10 10 9 8 8 8 8 8 9 9 10 10
6 7 7 9 5 4 5 7 7 6 5 4 3 2 2 4 4 3 4 4 5 9 12 15 19 22 24 23 22 21 18 17 18 20 18 14 13 12 11 10 10 9 8 8 7 7 6 7 7 8 9 9 10 10
7 9 6 10 9 12 4 5 5 6 4 6 2 4 3 3 3 3 4 8 12 15 17 20 22 23 24 23 21 19 18 16 15 14 13 12 11 10 10 9 8 8 7 7 7 7 7 8 8 8 8 8 9 10
7 5 5 8 7 9 10 6 6 6 7 5 2 3 4 5 5 6 11 14 17 19 20 19 19 17 16 15 14 13 12 11 10 8 8 9 8 8 7 7 7 7 7 7 8 7 7 7 7 8 8 8 9 10
7 6 6 8 6 7 9 8 6 9 5 5 8 17 16 12 14 15 14 15 15 16 17 17 16 14 14 12 12 10 9 8 7 7 6 6 6 5 5 6 6 6 6 7 7 7 7 8 8 8 8 8 8 9
5 6 7 7 5 9 12 16 17 16 17 22 19 18 14 9 15 12 13 13 14 13 12 12 11 11 9 8 7 6 6 6 6 5 5 5 4 5 5 6 6 6 6 7 6 6 6 6 7 7 7 8 9 10
6 6 6 4 4 4 3 5 8 9 7 8 7 7 5 4 4 4 8 10 11 11 11 10 8 7 6 5 5 5 4 4 3 4 4 4 5 5 5 5 6 6 6 7 7 7 7 7 7 7 8 8 9 10
9 9 8 7 5 4 3 3 3 4 3 3 2 2 2 2 3 5 9 10 11 10 8 6 5 3 2 2 3 3 3 3 3 3 3 3 4 5 5 6 6 6 7 7 7 7 7 8 8 8 8 9 10 10
Wind_Direction
314 313 316 307 271 252 243 227 208 202 198 195 195 195 190 188 190 178 183 186 190 199 223 223 218 203 199 202 192 188 184 198 182 177 172 178 197 197 216 218 208 199 193 189 203 206 238 152 143 204 228 209 199 202
334 336 337 331 297 281 231 200 189 190 186 188 188 188 185 186 188 178 167 185 190 193 213 197 206 200 208 206 190 178 192 176 177 188 187 202 151 194 201 219 210 223 214 245 215 221 163 185 221 223 229 236 204 201
338 351 6 15 86 76 126 166 170 170 178 179 181 182 182 183 186 171 164 175 176 195 226 251 220 194 229 224 208 200 205 196 198 194 160 180 205 171 174 227 219 222 173 213 222 239 233 225 227 239 227 224 272 242
354 17 51 64 93 103 116 133 147 157 168 178 176 178 175 181 183 168 170 168 172 176 231 230 261 253 259 225 221 227 208 210 194 197 207 180 197 211 215 227 215 223 181 234 243 264 275 244 240 231 225 239 248 254
28 27 57 95 108 121 134 139 147 157 161 163 168 168 171 172 164 163 168 183 188 182 223 236 248 249 239 231 233 228 218 198 189 182 172 211 224 215 236 253 232 191 213 206 221 233 226 251 246 239 223 241 239 230
55 53 64 121 129 127 142 142 144 148 155 157 159 164 166 161 162 151 122 190 189 203 231 259 220 219 243 241 226 215 212 208 217 214 205 221 190 215 225 242 233 222 228 236 231 209 223 265 252 260 247 252 228 206
86 87 96 105 115 123 128 137 142 143 147 153 155 154 159 164 162 159 160 176 185 190 227 262 256 236 228 196 201 199 197 207 219 219 212 211 191 198 201 245 256 224 216 221 233 239 239 252 248 262 264 243 211 188
76 92 103 108 119 125 129 133 137 139 141 144 147 152 158 159 164 177 185 177 177 176 234 267 284 271 200 160 159 195 193 197 212 231 163 201 140 206 246 237 245 230 224 229 230 232 241 261 251 220 206 192 165 162
85 90 99 109 117 123 126 129 131 134 137 137 141 147 148 151 169 190 167 157 179 155 193 236 218 309 96 122 131 132 164 157 164 180 218 188 167 217 219 219 209 215 204 270 200 202 221 228 192 179 167 155 157 150
90 95 100 106 112 115 118 121 124 124 127 130 129 128 130 157 173 145 140 146 152 206 217 263 124 251 289 21 123 119 123 136 155 205 153 216 229 230 282 319 312 238 218 205 175 221 208 194 153 162 143 147 161 154
105 109 112 115 117 121 125 128 130 132 132 124 116 108 148 135 144 131 130 181 151 201 216 198 204 274 297 215 154 75 129 152 177 169 180 191 222 165 349 336 296 247 215 231 233 250 212 174 151 142 138 160 165 165
120 114 118 122 120 123 130 133 135 134 134 135 126 123 135 116 129 124 122 21 216 222 173 205 171 164 221 187 77 50 118 142 193 149 162 181 75 11 24 42 64 107 118 131 137 123 130 137 149 149 144 152 157 161
116 122 122 125 129 133 141 146 136 121 122 115 112 106 182 30 115 164 160 176 204 186 176 171 129 171 183 53 90 164 169 159 113 132 83 44 35 50 69 84 86 93 113 118 107 116 125 128 138 149 145 144 148 144
113 125 120 122 130 144 155 155 84 141 170 125 143 143 262 94 267 273 186 159 105 181 150 140 95 75 98 58 309 78 69 106 129 109 70 43 45 67 93 105 110 106 113 106 107 112 116 126 129 131 133 137 137 131
129 127 128 140 130 126 142 95 81 143 37 41 19 69 149 71 51 297 312 26 13 140 129 110 75 67 44 93 33 105 131 79 33 62 56 44 68 89 94 101 108 107 111 111 116 119 121 124 124 121 124 127 124 121
132 133 128 145 163 151 233 258 39 56 56 46 33 5 346 160 49 27 19 19 38 132 106 90 113 104 66 58 62 33 59 45 59 36 77 93 92 100 105 110 113 115 114 114 116 119 121 122 119 116 118 118 119 122
156 132 150 167 173 239 346 26 30 42 46 27 32 15 356 54 38 17 6 349 30 48 58 70 60 50 104 65 60 24 48 48 77 75 88 99 103 106 110 109 110 112 111 110 111 113 111 112 116 117 112 113 115 111
146 168 170 150 148 115 95 58 81 61 56 28 62 24 48 46 24 22 4 13 44 67 43 53 38 47 43 56 54 78 85 80 83 91 99 105 108 110 110 109 109 109 106 104 104 105 107 109 106 105 112 114 117 115
140 163 173 175 140 71 72 55 68 89 49 42 29 21 37 47 41 47 47 57 77 85 81 52 51 43 45 37 18 92 97 100 96 91 95 101 104 105 103 103 102 102 103 102 102 100 101 103 103 105 105 107 102 96
145 143 151 160 178 76 70 56 64 77 64 105 62 46 48 22 24 30 41 48 53 59 51 46 39 20 1 354 35 104 114 117 115 105 96 96 104 106 104 105 104 106 103 102 99 97 96 95 96 98 97 92 84 70
156 147 167 179 58 66 77 65 72 90 113 100 101 90 60 41 36 35 30 28 57 34 61 33 35 36 57 85 107 119 117 115 106 110 112 104 105 104 104 104 104 102 100 97 95 94 91 86 85 82 75 68 58 44
136 127 118 92 74 65 62 35 85 109 96 136 96 58 48 29 24 23 25 43 63 32 22 36 43 65 77 84 99 111 121 121 117 115 110 107 100 97 95 95 99 93 91 88 89 89 88 84 76 67 57 47 30 12
114 89 62 48 79 61 51 38 59 33 57 65 48 44 38 41 30 25 68 42 47 11 37 64 87 89 88 100 107 110 113 118 112 110 110 105 102 100 98 93 90 92 93 90 90 89 84 75 62 48 37 25 15 5
99 60 40 47 35 55 37 38 38 48 67 58 46 55 43 41 36 62 63 42 9 25 54 76 86 91 97 97 87 92 98 107 107 104 104 107 104 99 101 100 99 97 93 92 86 76 67 55 43 34 26 19 12 7
71 18 24 19 22 34 39 33 15 32 59 46 68 59 51 38 60 63 52 25 19 34 49 84 93 88 89 92 97 101 105 106 107 103 98 101 104 105 102 100 98 95 90 81 72 62 55 48 40 32 25 20 15 12
73 23 34 15 19 31 19 44 33 32 40 65 59 68 64 73 74 73 64 24 30 55 76 82 94 101 98 101 103 103 101 107 112 108 106 107 104 101 100 96 89 82 78 71 63 55 45 36 28 21 15 11 8 9
52 28 47 33 17 39 71 51 42 48 54 43 34 43 61 72 84 88 102 64 97 106 111 113 113 110 108 106 105 104 106 110 106 103 103 103 99 96 95 90 84 79 67 56 47 39 29 20 14 11 11 7 2 2
52 33 50 13 50 37 55 38 31 29 32 10 28 44 64 56 86 90 97 115 116 120 121 119 116 113 110 110 110 108 104 96 92 90 89 89 87 83 79 75 69 60 51 39 30 22 19 16 13 11 9 6 3 2
46 30 63 38 47 46 37 29 15 7 349 2 67 81 89 78 63 113 128 131 126 123 119 115 111 111 110 108 106 101 95 90 87 90 91 89 80 72 63 55 45 36 28 22 20 18 17 14 11 9 8 6 3 1
36 32 87 51 49 40 22 15 29 21 49 84 99 111 95 90 99 114 125 137 139 133 124 120 114 110 104 98 90 85 82 85 91 94 89 86 78 62 48 37 30 24 20 17 11 8 8 6 4 2 2 3 1 357
73 62 71 63 82 94 80 72 73 77 84 92 98 102 104 103 96 103 118 126 128 127 126 121 117 111 102 94 89 86 86 82 79 76 75 71 60 40 24 18 14 12 9 8 3 0 359 358 357 356 356 355 353 351
46 69 110 102 133 164 72 71 71 81 78 80 81 92 84 88 87 133 134 132 131 132 131 125 116 106 93 80 75 76 75 72 67 57 50 39 20 8 3 359 358 359 359 355 351 350 350 348 346 344 343 343 343 342
88 88 96 107 126 160 161 111 78 100 81 93 70 81 86 88 122 159 167 165 157 155 154 149 138 117 88 74 72 59 50 41 29 24 13 357 349 347 345 346 346 346 346 344 341 339 337 335 334 333 331 331 331 333
Height
1201 1190 1180 1167 1160 1159 1159 1163 1175 1197 1216 1237 1254 1269 1282 1300 1317 1331 1344 1355 1365 1372 1375 1378 1380 1383 1390 1392 1395 1401 1414 1414 1417 1421 1427 1420 1422 1418 1417 1413 1423 1427 1431 1436 1432 1439 1435 1418 1425 1421 1410 1413 1415 1417
1194 1185 1175 1164 1157 1150 1141 1148 1167 1189 1210 1230 1247 1262 1278 1296 1314 1332 1343 1355 1366 1374 1376 1377 1378 1382 1383 1389 1395 1398 1392 1401 1404 1408 1414 1411 1420 1420 1413 1417 1413 1419 1414 1414 1416 1408 1404 1407 1405 1407 1408 1409 1411 1413
1193 1185 1177 1167 1157 1153 1140 1150 1169 1189 1212 1229 1246 1263 1279 1296 1314 1328 1340 1351 1365 1374 1378 1378 1377 1380 1384 1384 1386 1393 1394 1395 1399 1400 1406 1406 1410 1408 1415 1409 1404 1408 1410 1411 1412 1399 1403 1405 1405 1405 1407 1409 1411 1413
1193 1187 1182 1177 1173 1171 1169 1173 1187 1203 1218 1232 1247 1264 1281 1299 1316 1329 1340 1351 1363 1373 1376 1371 1373 1375 1380 1383 1381 1386 1393 1395 1397 1400 1400 1403 1403 1398 1397 1396 1397 1396 1402 1402 1394 1398 1403 1399 1400 1399 1403 1404 1404 1409
1195 1192 1188 1187 1187 1187 1191 1196 1204 1214 1226 1239 1254 1271 1288 1304 1321 1334 1345 1354 1363 1370 1368 1369 1371 1372 1373 1376 1379 1384 1388 1390 1392 1396 1400 1397 1394 1398 1396 1396 1389 1394 1392 1395 1393 1390 1393 1391 1393 1395 1397 1397 1398 1401
1204 1197 1191 1192 1196 1198 1201 1205 1214 1225 1237 1251 1266 1280 1296 1311 1322 1336 1352 1359 1364 1369 1373 1365 1363 1361 1368 1369 1373 1377 1381 1385 1389 1389 1392 1390 1391 1395 1394 1384 1382 1385 1387 1388 1386 1388 1389 1391 1388 1394 1395 1396 1394 1397
1218 1213 1208 1206 1207 1210 1214 1221 1230 1240 1252 1265 1278 1292 1305 1316 1328 1340 1348 1350 1358 1367 1371 1368 1355 1351 1352 1359 1367 1374 1379 1383 1387 1387 1387 1386 1390 1391 1393 1384 1378 1382 1383 1384 1384 1385 1387 1387 1387 1388 1389 1390 1393 1395
1234 1230 1227 1227 1227 1230 1234 1241 1249 1259 1269 1280 1292 1304 1316 1328 1339 1345 1345 1346 1355 1367 1370 1361 1352 1346 1343 1345 1359 1368 1373 1381 1384 1383 1384 1384 1390 1390 1384 1377 1379 1381 1381 1381 1381 1381 1382 1384 1387 1386 1386 1391 1391 1397
1248 1246 1245 1245 1247 1249 1254 1260 1267 1275 1284 1295 1305 1316 1326 1336 1343 1346 1345 1351 1357 1363 1363 1360 1353 1342 1338 1346 1352 1362 1366 1375 1379 1380 1381 1381 1384 1379 1372 1372 1374 1375 1377 1379 1380 1379 1381 1385 1381 1383 1385 1389 1392 1396
1262 1261 1261 1262 1263 1266 1271 1276 1282 1289 1297 1306 1315 1324 1333 1338 1342 1346 1351 1354 1361 1361 1363 1355 1351 1357 1348 1339 1351 1356 1360 1368 1373 1373 1376 1376 1368 1372 1373 1373 1373 1375 1377 1378 1380 1382 1382 1384 1382 1387 1385 1390 1397 1399
1273 1274 1275 1276 1278 1281 1284 1289 1294 1300 1307 1314 1319 1324 1330 1337 1341 1343 1347 1350 1354 1353 1351 1352 1353 1354 1353 1349 1346 1351 1357 1363 1359 1363 1366 1366 1364 1369 1372 1371 1372 1373 1375 1376 1377 1378 1380 1380 1383 1387 1388 1393 1396 1402
1282 1285 1287 1289 1292 1295 1298 1302 1306 1310 1314 1317 1319 1326 1329 1334 1338 1342 1344 1344 1345 1339 1339 1341 1343 1349 1345 1342 1346 1352 1356 1364 1356 1361 1360 1361 1370 1374 1373 1373 1373 1375 1376 1376 1378 1377 1380 1380 1383 1387 1392 1397 1400 1404
1291 1294 1297 1300 1303 1306 1310 1312 1315 1317 1319 1324 1325 1327 1331 1334 1331 1333 1338 1342 1341 1338 1335 1337 1340 1341 1342 1341 1346 1350 1350 1353 1358 1358 1361 1371 1374 1374 1374 1375 1376 1378 1378 1379 1378 1379 1380 1381 1387 1392 1396 1401 1404 1407
1300 1303 1305 1308 1311 1315 1318 1320 1320 1321 1321 1324 1327 1328 1325 1332 1328 1319 1329 1331 1334 1332 1333 1336 1340 1341 1343 1343 1346 1341 1354 1354 1350 1347 1366 1377 1378 1378 1377 1378 1378 1381 1381 1378 1382 1383 1385 1390 1395 1399 1402 1407 1411 1415
1309 1311 1314 1317 1318 1320 1322 1322 1322 1324 1322 1324 1328 1330 1334 1337 1337 1331 1325 1328 1331 1333 1333 1336 1339 1341 1344 1345 1348 1351 1351 1355 1364 1370 1377 1381 1380 1380 1379 1380 1381 1382 1384 1386 1389 1391 1394 1398 1401 1405 1411 1415 1418 1421
1315 1317 1320 1322 1324 1325 1325 1326 1327 1327 1331 1336 1339 1339 1339 1338 1338 1337 1336 1335 1334 1334 1336 1339 1343 1344 1347 1350 1352 1359 1358 1368 1378 1382 1384 1383 1383 1384 1384 1386 1387 1389 1391 1393 1397 1400 1403 1406 1408 1412 1417 1422 1426 1429
1319 1320 1324 1326 1328 1327 1327 1330 1331 1335 1340 1343 1345 1347 1345 1344 1344 1343 1341 1338 1337 1337 1338 1340 1340 1347 1352 1355 1365 1373 1378 1383 1385 1387 1386 1387 1388 1389 1391 1393 1395 1397 1399 1402 1405 1409 1412 1415 1418 1421 1424 1430 1432 1434
1323 1325 1327 1330 1332 1333 1334 1337 1341 1344 1346 1350 1351 1352 1350 1350 1349 1348 1345 1342 1340 1340 1345 1351 1354 1358 1364 1368 1377 1384 1388 1389 1389 1390 1391 1393 1394 1396 1398 1399 1403 1405 1407 1411 1414 1417 1421 1425 1428 1430 1432 1436 1438 1440
1323 1326 1330 1332 1334 1335 1337 1342 1344 1349 1354 1354 1355 1355 1355 1355 1354 1352 1348 1345 1344 1346 1351 1362 1371 1377 1383 1388 1389 1389 1391 1393 1394 1397 1398 1400 1401 1403 1405 1409 1412 1414 1416 1420 1422 1426 1428 1431 1434 1437 1439 1441 1441 1443
1325 1328 1330 1332 1335 1337 1341 1345 1347 1351 1355 1360 1359 1359 1359 1361 1359 1356 1354 1351 1351 1356 1370 1382 1394 1397 1395 1393 1391 1392 1395 1398 1399 1401 1405 1408 1410 1411 1414 1416 1419 1422 1424 1427 1429 1433 1434 1436 1439 1441 1442 1443 1443 1444
1328 1332 1334 1336 1338 1340 1345 1347 1350 1354 1359 1361 1364 1365 1367 1367 1365 1363 1361 1362 1364 1384 1395 1402 1401 1400 1398 1396 1396 1397 1400 1402 1404 1406 1409 1412 1416 1418 1420 1423 1426 1427 1428 1432 1434 1436 1438 1442 1444 1444 1443 1443 1444 1445
1332 1335 1337 1339 1342 1345 1349 1351 1353 1356 1359 1362 1364 1367 1370 1372 1372 1375 1377 1378 1398 1409 1409 1409 1407 1405 1403 1402 1402 1402 1405 1405 1407 1410 1414 1417 1420 1424 1427 1431 1432 1431 1433 1436 1438 1440 1442 1445 1446 1446 1446 1446 1446 1447
1336 1337 1339 1342 1345 1349 1357 1355 1356 1358 1359 1364 1368 1372 1376 1380 1386 1387 1396 1409 1415 1416 1414 1413 1411 1409 1409 1409 1408 1410 1412 1413 1414 1418 1421 1422 1425 1429 1432 1434 1436 1436 1438 1442 1444 1446 1447 1448 1448 1448 1447 1447 1447 1446
1338 1340 1345 1349 1353 1357 1358 1360 1362 1363 1366 1370 1374 1380 1387 1390 1394 1400 1413 1421 1424 1420 1418 1416 1415 1415 1415 1414 1415 1419 1421 1421 1422 1425 1428 1430 1432 1436 1439 1440 1442 1444 1446 1447 1448 1448 1449 1449 1449 1449 1448 1448 1447 1446
1343 1359 1359 1362 1363 1363 1366 1369 1371 1369 1374 1378 1383 1390 1396 1398 1403 1414 1422 1428 1428 1425 1424 1423 1421 1422 1422 1424 1425 1427 1429 1431 1431 1433 1437 1440 1442 1444 1445 1446 1447 1448 1449 1450 1450 1450 1450 1450 1449 1449 1449 1448 1447 1446
1361 1374 1374 1375 1376 1375 1377 1378 1381 1383 1384 1388 1395 1399 1402 1405 1413 1424 1431 1433 1432 1431 1430 1430 1429 1428 1429 1431 1433 1435 1438 1439 1441 1440 1443 1446 1447 1449 1449 1450 1450 1451 1451 1451 1451 1451 1450 1450 1449 1449 1448 1447 1446 1445
1376 1382 1384 1386 1386 1386 1388 1391 1392 1393 1396 1400 1403 1404 1405 1412 1422 1432 1435 1435 1435 1434 1434 1434 1435 1435 1436 1438 1440 1442 1444 1446 1446 1447 1448 1449 1450 1450 1451 1452 1452 1452 1452 1452 1451 1451 1451 1450 1449 1448 1447 1446 1445 1444
1388 1390 1392 1395 1395 1397 1399 1403 1405 1408 1409 1411 1411 1414 1417 1422 1429 1436 1437 1437 1436 1437 1438 1438 1439 1441 1442 1444 1446 1448 1449 1450 1451 1451 1452 1452 1452 1452 1452 1453 1453 1453 1452 1452 1451 1451 1450 1449 1448 1447 1446 1445 1444 1442
1396 1398 1399 1404 1405 1409 1415 1418 1419 1419 1419 1417 1417 1422 1428 1433 1436 1437 1437 1439 1440 1442 1443 1444 1445 1447 1448 1449 1450 1451 1451 1452 1453 1454 1454 1454 1454 1455 1454 1453 1453 1452 1452 1451 1450 1450 1449 1448 1448 1447 1445 1444 1443 1441
1403 1403 1406 1414 1419 1424 1427 1425 1424 1422 1420 1421 1423 1428 1431 1435 1437 1439 1440 1442 1443 1444 1446 1448 1449 1450 1451 1452 1452 1453 1453 1453 1454 1455 1455 1455 1455 1455 1454 1454 1453 1452 1451 1450 1450 1450 1448 1447 1446 1445 1444 1443 1441 1440
1407 1409 1414 1422 1428 1433 1431 1429 1428 1428 1427 1428 1431 1433 1436 1440 1442 1444 1444 1445 1446 1448 1450 1451 1452 1453 1453 1454 1454 1455 1455 1456 1455 1455 1455 1456 1456 1455 1454 1454 1453 1452 1451 1450 1450 1449 1448 1446 1445 1444 1442 1441 1440 1438
1411 1414 1419 1426 1432 1433 1432 1432 1433 1435 1437 1438 1439 1441 1442 1444 1446 1447 1448 1448 1450 1451 1452 1453 1454 1455 1456 1456 1456 1456 1456 1457 1456 1456 1455 1455 1455 1455 1454 1453 1452 1451 1450 1449 1449 1447 1446 1445 1444 1442 1441 1439 1438 1436
1420 1421 1423 1427 1431 1433 1433 1434 1436 1439 1440 1442 1443 1443 1443 1445 1447 1448 1448 1450 1451 1452 1454 1455 1456 1456 1457 1457 1457 1457 1457 1457 1456 1456 1455 1455 1455 1454 1453 1452 1451 1450 1449 1448 1447 1446 1445 1443 1442 1440 1439 1437 1436 1434